FW7769 Weather Reports


time (UTC)temp
C
wind
direction
speed
KPH
gust
KPH
rain 1hr
cm
rain 24hr
cm
rain mn
cm
humidity
%
barometer
mb
20260507141543 17 0 0.0 0.0 0.00 0.00 0.00 86 1009.3
20260507140055 17 0 0.0 1.6 0.00 0.00 0.00 83 1009.3
20260507134542 18 0 0.0 11.3 0.00 0.00 0.00 82 1009.5
20260507133040 18 112 0.0 3.2 0.00 0.00 0.00 80 1009.6
20260507131539 19 0 0.0 6.4 0.00 0.00 0.00 77 1009.5
20260507130050 20 105 0.0 9.7 0.00 0.00 0.00 70 1009.7
20260507124555 21 0 0.0 16.1 0.00 0.00 0.00 67 1009.7
20260507123043 21 91 0.0 9.7 0.00 0.00 0.00 67 1009.8
20260507121540 21 0 0.0 3.2 0.00 0.00 0.00 66 1009.9
20260507120040 21 58 0.0 8.0 0.00 0.00 0.00 67 1010.1
20260507114556 21 0 0.0 8.0 0.00 0.00 0.00 68 1010.2
20260507113038 20 0 0.0 4.8 0.00 0.00 0.00 70 1010.1
20260507111538 20 0 0.0 6.4 0.00 0.00 0.00 70 1010.4
20260507110046 20 0 0.0 6.4 0.00 0.00 0.00 71 1010.4
20260507104549 20 0 0.0 14.5 0.00 0.00 0.00 70 1010.5
20260507103040 20 73 0.0 11.3 0.00 0.00 0.00 71 1010.5
20260507101538 20 0 0.0 8.0 0.00 0.00 0.00 71 1010.5
20260507100042 20 0 0.0 6.4 0.00 0.00 0.00 72 1010.3
20260507094536 20 0 0.0 11.3 0.00 0.00 0.00 72 1010.7
20260507093044 20 0 0.0 3.2 0.00 0.00 0.00 70 1010.7
20260507091544 20 0 0.0 3.2 0.00 0.00 0.00 71 1010.7
20260507090039 20 0 0.0 8.0 0.00 0.00 0.00 72 1010.6
20260507084540 19 0 0.0 11.3 0.00 0.00 0.00 72 1010.7
20260507083036 20 0 0.0 3.2 0.00 0.00 0.00 71 1010.7
20260507081543 19 0 0.0 1.6 0.00 0.00 0.00 73 1010.7
20260507080049 18 0 0.0 4.8 0.00 0.00 0.00 74 1010.7
20260507074546 18 0 0.0 3.2 0.00 0.00 0.00 74 1010.6
20260507073046 18 0 0.0 0.0 0.00 0.00 0.00 75 1010.5
20260507071545 18 0 0.0 1.6 0.00 0.00 0.00 75 1010.4
20260507070054 17 0 0.0 1.6 0.00 0.00 0.00 76 1010.2
20260507064540 16 0 0.0 0.0 0.00 0.00 0.00 80 1010.1
20260507063052 15 0 0.0 0.0 0.00 0.00 0.00 84 1010.1
20260507061546 15 0 0.0 0.0 0.00 0.00 0.00 85 1010.2
20260507060047 15 0 0.0 0.0 0.00 0.00 0.00 87 1010.2
20260507054545 14 0 0.0 0.0 0.00 0.00 0.00 88 1010.0
20260507053040 14 0 0.0 0.0 0.00 0.00 0.00 87 1010.1
20260507051540 14 0 0.0 0.0 0.00 0.00 0.00 86 1010.0
20260507050039 15 0 0.0 0.0 0.00 0.00 0.00 84 1010.0
20260507044546 14 0 0.0 0.0 0.00 0.00 0.00 87 1010.0
20260507043044 13 0 0.0 0.0 0.00 0.00 0.00 86 1009.8
20260507041544 14 0 0.0 0.0 0.00 0.00 0.00 85 1009.6
20260507040041 14 0 0.0 0.0 0.00 0.00 0.00 85 1009.7
20260507034540 15 0 0.0 0.0 0.00 0.00 0.00 83 1009.8
20260507033048 15 0 0.0 0.0 0.00 0.00 0.00 84 1009.5
20260507031537 15 0 0.0 0.0 0.00 0.00 0.00 85 1009.5
20260507030044 15 0 0.0 0.0 0.00 0.00 0.00 86 1009.6
20260507024542 15 0 0.0 0.0 0.00 0.00 0.00 86 1009.7
20260507023048 15 0 0.0 0.0 0.00 0.00 0.00 86 1009.7
20260507021539 15 0 0.0 0.0 0.00 0.00 0.00 86 1009.8
20260507020043 15 0 0.0 0.0 0.00 0.00 0.00 85 1010.1
20260507014551 16 0 0.0 0.0 0.00 0.00 0.00 84 1010.2
20260507013051 16 0 0.0 0.0 0.00 0.00 0.00 81 1010.3
20260507011544 16 0 0.0 0.0 0.00 0.00 0.00 80 1010.3
20260507010053 16 0 0.0 1.6 0.00 0.00 0.00 80 1010.1
20260507004539 16 0 0.0 0.0 0.00 0.00 0.00 80 1010.1
20260507003039 16 0 0.0 0.0 0.00 0.00 0.00 81 1010.3
20260507001555 16 0 0.0 0.0 0.00 0.00 0.00 82 1010.4
20260507000041 16 0 0.0 0.0 0.00 0.00 0.00 83 1010.5
20260506234551 16 0 0.0 0.0 0.00 0.00 0.00 83 1010.6
20260506233054 17 0 0.0 0.0 0.00 0.00 0.00 83 1010.8
20260506231550 17 0 0.0 0.0 0.00 0.00 0.00 83 1010.8
20260506230048 17 0 0.0 0.0 0.00 0.00 0.00 83 1010.9
20260506224542 17 0 0.0 0.0 0.00 0.00 0.00 83 1010.8
20260506223040 17 0 0.0 0.0 0.00 0.00 0.00 83 1010.8
20260506221556 17 0 0.0 0.0 0.00 0.00 0.00 83 1010.8
20260506220041 17 0 0.0 0.0 0.00 0.00 0.00 84 1010.7
20260506214538 17 0 0.0 0.0 0.00 0.00 0.00 84 1011.1
20260506213042 17 0 0.0 0.0 0.00 0.00 0.00 84 1011.2
20260506211544 17 0 0.0 0.0 0.00 0.00 0.00 84 1011.2
20260506210041 17 0 0.0 0.0 0.00 0.00 0.00 85 1011.2
20260506204539 17 0 0.0 0.0 0.00 0.00 0.00 85 1011.0
20260506203039 17 0 0.0 0.0 0.00 0.00 0.00 85 1010.8
20260506201543 17 0 0.0 0.0 0.00 0.00 0.00 84 1010.7
20260506200046 17 0 0.0 0.0 0.00 0.00 0.00 84 1010.6
20260506194546 17 0 0.0 0.0 0.00 0.00 0.00 83 1010.1
20260506193038 17 0 0.0 0.0 0.00 0.00 0.00 82 1010.1
20260506191539 17 0 0.0 0.0 0.00 0.00 0.00 82 1010.0
20260506190038 18 0 0.0 1.6 0.00 0.00 0.00 81 1009.8
20260506184544 18 0 0.0 3.2 0.00 0.00 0.00 79 1009.6
20260506183041 18 0 0.0 4.8 0.00 0.00 0.00 78 1009.5
20260506181539 18 82 0.0 1.6 0.00 0.00 0.00 77 1009.6
20260506180043 18 0 0.0 4.8 0.00 0.00 0.00 76 1009.4
20260506174548 18 0 0.0 6.4 0.00 0.00 0.00 75 1009.3
20260506173056 19 64 0.0 6.4 0.00 0.00 0.00 72 1009.2
20260506171549 20 0 0.0 3.2 0.00 0.00 0.00 72 1009.2
20260506170042 20 0 0.0 3.2 0.00 0.00 0.00 71 1009.2
20260506164552 20 0 0.0 9.7 0.00 0.00 0.00 70 1009.2
20260506163047 20 117 0.0 9.7 0.00 0.00 0.00 69 1008.9
20260506161551 20 110 0.0 6.4 0.00 0.00 0.00 69 1008.9
20260506160050 20 0 0.0 14.5 0.00 0.00 0.00 70 1008.9
20260506154551 21 122 3.2 17.7 0.00 0.00 0.00 68 1008.8
20260506153045 21 0 1.6 12.9 0.00 0.00 0.00 68 1008.9
20260506151549 21 143 1.6 16.1 0.00 0.00 0.00 69 1009.0
20260506150038 21 53 0.0 17.7 0.00 0.00 0.00 69 1009.1
20260506144546 21 37 0.0 16.1 0.00 0.00 0.00 69 1008.9
20260506143042 21 91 1.6 14.5 0.00 0.00 0.00 68 1009.2